Location: Fort Worth, Tx
(32.7431°N, 97.3695°W)
Time: 15:09:10
(UTC-04:00)

Transit 2A - Pass Details

Date: 24 February 2024
Orbit: 596 x 956 km, 66.7° (Epoch: 21 April)

Event Time Altitude Azimuth Distance (km) Brightness Sun altitude
Exits shadow 07:22:46 - 322° (NW) 3,041 8.7 -9.3°
Reaches altitude 10° 07:25:00 10° 315° (NW) 2,235 8.0 -8.8°
Maximum altitude 07:29:39 36° 249° (WSW) 1,221 6.6 -7.9°
Drops below altitude 10° 07:34:45 10° 184° (S) 2,446 8.7 -6.8°
Sets 07:37:29 0° 176° (S) 3,435 9.5 -6.2°
